Weather History for Morrisville, VT

Change the Weather History Date:

Monday, September 9, 2013

  Actual Average Record
Temperature  
Mean Temperature 53 °F 60 °F  
Max Temperature 70 °F 73 °F 95 °F (2002)
Min Temperature 35 °F 48 °F 35 °F (2013)
Degree Days  
Heating Degree Days 12 6  
Month to date heating degree days 57 42  
Since 1 July heating degree days 126 137  
Cooling Degree Days 0 1  
Month to date cooling degree days 20 9  
Year to date cooling degree days 383 256  
Growing Degree Days 2 (Base 50)    
Moisture  
Dew Point 40 °F    
Average Humidity 64    
Maximum Humidity 100    
Minimum Humidity 28    
Precipitation  
Precipitation 0.00 in 0.11 in 0.56 in (2008)
Month to date precipitation 0.77 0.87  
Year to date precipitation 31.03 24.63  
Sea Level Pressure  
Sea Level Pressure 30.16 in    
Wind  
Wind Speed 2 mph (South)    
Max Wind Speed 12 mph    
Max Gust Speed 15 mph    
Visibility 8 miles    
Events Fog    
T = Trace of Precipitation, MM = Missing Value Source: NWS Daily Summary

Daily Weather History Graph

Daily Weather History Graph

Search for Another Location

Airport:

Trip Planner

Search our weather history database for the weather conditions in past years. The results will help you decide how hot, cold, wet, or windy it might be!

Date:

Astronomy

Sep. 09, 2013 Rise Set
Actual Time 6:22 AM EDT 7:11 PM EDT
Civil Twilight 5:53 AM EDT 7:41 PM EDT
Nautical Twilight 5:17 AM EDT 8:16 PM EDT
Astronomical Twilight 4:41 AM EDT 8:52 PM EDT
Moon 10:53 AM EDT (9/9) 9:13 PM EDT (9/9)
Length of Visible Light 13h 48m
Length of Day
12h 49m
Waxing Crescent, 19% of the Moon is Illuminated
Sep 9
Waxing Crescent
Sep 12
First Quarter
Sep 19
Full
Sep 26
Last Quarter
Oct 4
New

Hourly Weather History & Observations

Time (EDT) Temp. Windchill Dew Point Humidity Pressure Visibility Wind Dir Wind Speed Gust Speed Precip Events Conditions
12:54 AM 41.0 °F - 37.9 °F 89% 30.15 in 10.0 mi Calm Calm - N/A   Clear
1:54 AM 39.0 °F - 36.0 °F 89% 30.16 in 10.0 mi Calm Calm - N/A   Clear
2:54 AM 37.9 °F - 35.1 °F 89% 30.17 in 10.0 mi Calm Calm - N/A   Clear
3:54 AM 36.0 °F - 34.0 °F 93% 30.19 in 10.0 mi Calm Calm - N/A   Clear
4:41 AM 35.6 °F - 33.8 °F 93% 30.17 in 10.0 mi Calm Calm - N/A   Scattered Clouds
4:54 AM 35.1 °F - 34.0 °F 96% 30.19 in 10.0 mi Calm Calm - N/A   Mostly Cloudy
5:11 AM 35.6 °F - 35.6 °F 100% 30.17 in 1.8 mi Calm Calm - N/A   Overcast
5:15 AM 35.6 °F - 35.6 °F 100% 30.18 in 0.8 mi Calm Calm - N/A   Overcast
5:54 AM 37.0 °F - 36.0 °F 96% 30.21 in 0.2 mi Calm Calm - N/A Fog Fog
6:54 AM 37.0 °F - 37.0 °F 100% 30.23 in 0.2 mi Calm Calm - N/A Fog Fog
7:54 AM 39.0 °F - 37.9 °F 96% 30.23 in 0.2 mi Calm Calm - N/A Fog Fog
8:46 AM 39.2 °F - 39.2 °F 100% 30.21 in 1.2 mi Calm Calm - N/A   Overcast
8:54 AM 41.0 °F 39.0 °F 39.9 °F 96% 30.24 in 1.2 mi NNW 3.5 mph - N/A   Overcast
9:04 AM 41.0 °F - 39.2 °F 93% 30.22 in 3.0 mi Calm Calm - N/A   Overcast
9:41 AM 46.4 °F - 42.8 °F 87% 30.20 in 10.0 mi Calm Calm - N/A   Scattered Clouds
9:54 AM 46.9 °F - 44.1 °F 90% 30.22 in 10.0 mi Calm Calm - N/A   Partly Cloudy
10:54 AM 57.0 °F - 43.0 °F 59% 30.20 in 10.0 mi ESE 3.5 mph - N/A   Clear
11:54 AM 61.0 °F - 37.9 °F 42% 30.18 in 10.0 mi Variable 5.8 mph - N/A   Clear
12:54 PM 64.9 °F - 42.1 °F 43% 30.16 in 10.0 mi SSW 8.1 mph - N/A   Clear
1:54 PM 66.9 °F - 42.1 °F 40% 30.15 in 10.0 mi SSW 5.8 mph - N/A   Clear
2:54 PM 69.1 °F - 37.0 °F 31% 30.14 in 10.0 mi Variable 5.8 mph - N/A   Clear
3:54 PM 69.1 °F - 36.0 °F 30% 30.11 in 10.0 mi Variable 5.8 mph - N/A   Clear
4:54 PM 68.0 °F - 37.9 °F 33% 30.10 in 10.0 mi South 5.8 mph - N/A   Clear
5:54 PM 66.0 °F - 43.0 °F 43% 30.10 in 10.0 mi Calm Calm - N/A   Clear
6:54 PM 59.0 °F - 48.9 °F 69% 30.09 in 10.0 mi Calm Calm - N/A   Clear
7:54 PM 55.0 °F - 48.0 °F 77% 30.10 in 10.0 mi Calm Calm - N/A   Clear
8:54 PM 52.0 °F - 46.9 °F 83% 30.11 in 10.0 mi Calm Calm - N/A   Clear
9:54 PM 51.1 °F - 46.0 °F 83% 30.10 in 10.0 mi Calm Calm - N/A   Clear
10:54 PM 50.0 °F - 46.0 °F 86% 30.09 in 10.0 mi Calm Calm - N/A   Clear
11:54 PM 50.0 °F - 46.0 °F 86% 30.09 in 10.0 mi Calm Calm - N/A   Clear